DW5856 Weather Reports


Display with metric or nautical units.
time (UTC)temp
F
wind
direction
speed
MPH
gust
MPH
rain 1hr
in
rain 24hr
in
rain mn
in
humidity
%
barometer
mb
20260504050014 56 360 3.0 6.0 0.00 0.00 0.00 34 1001.6
20260504044522 57 355 5.0 9.0 0.00 0.00 0.00 33 1001.5
20260504043016 58 11 7.0 11.0 0.00 0.00 0.00 31 1001.6
20260504041512 59 15 8.0 12.0 0.00 0.00 0.00 28 1001.6
20260504040011 61 38 9.0 12.0 0.00 0.00 0.00 25 1001.6
20260504034510 63 16 12.0 16.0 0.00 0.00 0.00 24 1001.4
20260504033009 61 343 7.0 9.0 0.00 0.00 0.00 25 1001.0
20260504031509 62 272 4.0 9.0 0.00 0.00 0.00 27 1000.7
20260504030010 61 271 3.0 4.0 0.00 0.00 0.00 27 1000.5
20260504024509 62 274 4.0 6.0 0.00 0.00 0.00 26 1000.4
20260504023009 64 298 4.0 6.0 0.00 0.00 0.00 25 1000.3
20260504021507 66 232 1.0 5.0 0.00 0.00 0.00 25 1000.1
20260504020012 68 230 1.0 5.0 0.00 0.00 0.00 24 999.9
20260504014507 69 238 3.0 7.0 0.00 0.00 0.00 23 999.8
20260504013004 70 181 6.0 10.0 0.00 0.00 0.00 23 999.8
20260504011504 71 173 4.0 7.0 0.00 0.00 0.00 23 999.8
20260504010002 70 226 2.0 5.0 0.00 0.00 0.00 23 1000.1
20260504004501 69 268 4.0 7.0 0.00 0.00 0.00 23 1000.1
20260504003104 69 55 1.0 5.0 0.00 0.00 0.00 25 1000.1
20260504001618 70 16 1.0 4.0 0.00 0.00 0.00 21 1000.1
20260504000059 69 111 1.0 7.0 0.00 0.00 0.00 23 1000.3
20260503234556 70 90 3.0 8.0 0.00 0.00 0.00 25 1000.4
20260503233055 71 155 4.0 10.0 0.00 0.00 0.00 22 1000.4
20260503231555 71 97 2.0 6.0 0.00 0.00 0.00 21 1000.5
20260503230058 72 137 3.0 13.0 0.00 0.00 0.00 21 1000.6
20260503224552 72 155 0.0 6.0 0.00 0.00 0.00 19 1000.6
20260503223052 72 26 1.0 5.0 0.00 0.00 0.00 18 1000.9
20260503221551 72 5 10.0 14.0 0.00 0.00 0.00 18 1000.7
20260503220053 73 32 8.0 19.0 0.00 0.00 0.00 18 1000.9
20260503214549 74 16 16.0 22.0 0.00 0.00 0.00 17 1000.8
20260503213055 74 355 12.0 21.0 0.00 0.00 0.00 15 1001.2
20260503211545 75 344 10.0 16.0 0.00 0.00 0.00 15 1001.3
20260503210046 74 327 7.0 11.0 0.00 0.00 0.00 15 1001.7
20260503204539 75 309 11.0 19.0 0.00 0.00 0.00 15 1002.1
20260503203036 74 302 10.0 23.0 0.00 0.00 0.00 15 1002.5
20260503201535 74 314 10.0 22.0 0.00 0.00 0.00 15 1002.7
20260503200133 72 296 15.0 24.0 0.00 0.00 0.00 15 1002.9
20260503194544 73 319 12.0 25.0 0.00 0.00 0.00 15 1003.1
20260503193047 73 300 17.0 29.0 0.00 0.00 0.00 15 1003.2
20260503191540 73 324 19.0 28.0 0.00 0.00 0.00 15 1003.7
20260503190013 73 318 13.0 29.0 0.00 0.00 0.00 15 1003.8
20260503184511 73 321 15.0 23.0 0.00 0.00 0.00 15 1004.0
20260503183009 74 300 12.0 20.0 0.00 0.00 0.00 15 1004.1
20260503181506 73 275 8.0 20.0 0.00 0.00 0.00 16 1004.5
20260503180012 73 271 12.0 24.0 0.00 0.00 0.00 15 1004.7
20260503174603 73 261 10.0 21.0 0.00 0.00 0.00 15 1004.9
20260503173103 74 294 11.0 18.0 0.00 0.00 0.00 15 1005.3
20260503171557 73 200 7.0 14.0 0.00 0.00 0.00 15 1005.5
20260503150134 66 98 4.0 7.0 0.00 0.00 0.00 28 1006.8
20260503140146 60 121 4.0 7.0 0.00 0.00 0.00 33 1007.7
20260503081545 55 312 2.0 5.0 0.00 0.00 0.00 29 1008.7
20260503071522 56 311 7.0 9.0 0.00 0.00 0.00 26 1009.6
20260503054513 55 261 5.0 10.0 0.00 0.00 0.00 26 1009.8